Owensboro, KY

11:13 PM CDT on July 23, 2017 (GMT -0500)
Owensboro-Daviess County

Weather History for KOWB - March, 2013

Change the Weather History Date:

Monday, March 4, 2013

  Actual Average Record
Temperature  
Mean Temperature 38 °F -  
Max Temperature 48 °F 55 °F 80 °F (1983)
Min Temperature 28 °F 35 °F 4 °F (1978)
Degree Days  
Heating Degree Days 27    
Moisture  
Dew Point 26 °F    
Average Humidity 58    
Maximum Humidity 85    
Minimum Humidity 44    
Precipitation  
Precipitation 0.00 in - - ()
Sea Level Pressure  
Sea Level Pressure 30.01 in    
Wind  
Wind Speed 8 mph (SE)    
Max Wind Speed 18 mph    
Max Gust Speed 22 mph    
Visibility 10 miles    
Events Rain    
Averages and records for this station are not official NWS values.
T = Trace of Precipitation, MM = Missing Value Source: NWS Daily Summary

Daily Weather History Graph

Daily Weather History Graph

Search for Another Location

Airport or City:

Trip Planner

Search our weather history database for the weather conditions in past years. The results will help you decide how hot, cold, wet, or windy it might be!

Date:

Astronomy

Mar. 04, 2013 Rise Set
Actual Time 6:15 AM CST 5:45 PM CST
Civil Twilight 5:49 AM CST 6:11 PM CST
Nautical Twilight 5:19 AM CST 6:42 PM CST
Astronomical Twilight 4:48 AM CST 7:12 PM CST
Moon 12:20 AM CST (3/4) 10:31 AM CST (3/4)
Length of Visible Light 12h 22m
Length of Day
11h 30m
Waning Gibbous, 52% of the Moon is Illuminated
Mar 4
Waning Gibbous
Mar 4
Last Quarter
Mar 11
New
Mar 19
First Quarter
Mar 27
Full

Hourly Weather History & Observations

Time (CST) Temp. Windchill Dew Point Humidity Pressure Visibility Wind Dir Wind Speed Gust Speed Precip Events Conditions
12:56 AM 28.0 °F 24.2 °F 24.1 °F 85% 30.14 in 10.0 mi East 3.5 mph - N/A   Clear
1:56 AM 28.0 °F - 21.0 °F 75% 30.14 in 10.0 mi Calm Calm - N/A   Clear
2:56 AM 29.1 °F - 23.0 °F 78% 30.14 in 10.0 mi Calm Calm - N/A   Partly Cloudy
3:56 AM 30.0 °F 25.2 °F 23.0 °F 75% 30.14 in 10.0 mi SE 4.6 mph - N/A   Overcast
4:56 AM 30.0 °F 23.2 °F 22.1 °F 72% 30.14 in 10.0 mi ESE 6.9 mph - N/A   Overcast
6:56 AM 32.0 °F 24.8 °F 21.0 °F 64% 30.13 in 10.0 mi SE 8.1 mph - N/A   Mostly Cloudy
7:33 AM 32.0 °F 23.6 °F 21.2 °F 64% 30.12 in 10.0 mi SE 10.4 mph - 0.00 in   Ice Pellets
7:56 AM 32.9 °F 25.3 °F 23.0 °F 67% 30.13 in 10.0 mi SE 9.2 mph - 0.00 in   Light Drizzle
8:56 AM 34.9 °F 26.6 °F 22.1 °F 60% 30.11 in 10.0 mi SE 11.5 mph - 0.00 in   Scattered Clouds
9:56 AM 38.8 °F 30.0 °F 23.0 °F 53% 30.11 in 10.0 mi SSE 16.1 mph - N/A   Partly Cloudy
10:56 AM 41.0 °F 33.5 °F 24.1 °F 51% 30.07 in 10.0 mi SE 13.8 mph - N/A   Overcast
11:56 AM 45.9 °F 39.7 °F 27.1 °F 48% 30.03 in 10.0 mi SE 13.8 mph 18.4 mph N/A   Scattered Clouds
12:56 PM 45.9 °F 40.0 °F 27.1 °F 48% 29.98 in 10.0 mi SE 12.7 mph 20.7 mph N/A   Scattered Clouds
1:56 PM 48.9 °F - 28.0 °F 44% 29.94 in 10.0 mi ESE 18.4 mph 21.9 mph N/A   Scattered Clouds
2:56 PM 48.9 °F - 28.0 °F 44% 29.90 in 10.0 mi ESE 15.0 mph - N/A   Clear
3:56 PM 48.9 °F - 28.0 °F 44% 29.91 in 10.0 mi SE 16.1 mph 21.9 mph N/A   Partly Cloudy
4:56 PM 47.8 °F - 28.0 °F 46% 29.90 in 10.0 mi ESE 15.0 mph - N/A   Mostly Cloudy
5:56 PM 46.9 °F - 29.1 °F 50% 29.92 in 10.0 mi East 13.8 mph - N/A   Overcast
6:56 PM 45.9 °F 40.8 °F 30.0 °F 54% 29.91 in 10.0 mi East 10.4 mph - N/A   Overcast
7:56 PM 46.9 °F - 29.1 °F 50% 29.91 in 10.0 mi ESE 12.7 mph - N/A   Overcast
8:56 PM 46.9 °F - 29.1 °F 50% 29.90 in 10.0 mi ESE 10.4 mph - N/A   Overcast
9:56 PM 46.9 °F - 30.0 °F 52% 29.88 in 10.0 mi ESE 9.2 mph - N/A   Overcast
10:56 PM 47.8 °F - 31.1 °F 52% 29.87 in 10.0 mi SE 9.2 mph - N/A   Overcast
11:56 PM 47.8 °F - 34.0 °F 59% 29.85 in 10.0 mi SE 8.1 mph - 0.00 in Rain Light Rain